Time,TemperatureF,DewpointF,PressureIn,WindDirection,WindDirectionDegrees,WindSpeedMPH,WindSpeedGustMPH,Humidity,HourlyPrecipIn,Conditions,Clouds,dailyrainin,SoftwareType,DateUTC
2015-08-03 00:06:00,74.0,64.0,29.83,SSE,165,2.0,4.0,72,0.00,,,0.00,weatherlink.com 1.10,2015-08-03 04:06:00,
2015-08-03 00:20:00,73.7,64.0,29.83,South,170,0.0,4.0,72,0.00,,,0.00,weatherlink.com 1.10,2015-08-03 04:20:00,
2015-08-03 00:35:00,73.5,64.0,29.82,South,175,1.0,4.0,72,0.00,,,0.00,weatherlink.com 1.10,2015-08-03 04:35:00,
2015-08-03 00:51:00,73.3,64.0,29.82,South,170,1.0,3.0,73,0.00,,,0.00,weatherlink.com 1.10,2015-08-03 04:51:00,
2015-08-03 01:06:00,73.0,63.0,29.82,South,183,0.0,4.0,72,0.00,,,0.00,weatherlink.com 1.10,2015-08-03 05:06:00,
2015-08-03 01:21:00,72.6,63.0,29.82,SSE,153,1.0,4.0,73,0.00,,,0.00,weatherlink.com 1.10,2015-08-03 05:21:00,
2015-08-03 01:36:00,72.5,63.0,29.82,South,171,1.0,3.0,73,0.00,,,0.00,weatherlink.com 1.10,2015-08-03 05:36:00,
2015-08-03 01:51:00,72.3,64.0,29.83,South,169,0.0,1.0,74,0.00,,,0.00,weatherlink.com 1.10,2015-08-03 05:51:00,
2015-08-03 02:21:00,72.4,64.0,29.82,SSE,167,0.0,1.0,74,0.00,,,0.00,weatherlink.com 1.10,2015-08-03 06:21:00,
2015-08-03 02:35:00,72.2,64.0,29.82,SSE,167,0.0,0.0,74,0.00,,,0.00,weatherlink.com 1.10,2015-08-03 06:35:00,
2015-08-03 02:51:00,71.5,64.0,29.82,SSE,167,0.0,1.0,77,0.00,,,0.00,weatherlink.com 1.10,2015-08-03 06:51:00,
2015-08-03 03:05:00,70.7,64.0,29.82,SSE,167,0.0,2.0,79,0.00,,,0.00,weatherlink.com 1.10,2015-08-03 07:05:00,
2015-08-03 03:20:00,70.4,64.0,29.81,SSE,167,0.0,1.0,80,0.00,,,0.00,weatherlink.com 1.10,2015-08-03 07:20:00,
2015-08-03 03:50:00,69.5,63.0,29.81,SSE,148,0.0,3.0,81,0.00,,,0.00,weatherlink.com 1.10,2015-08-03 07:50:00,
2015-08-03 04:05:00,69.5,63.0,29.81,SSE,147,0.0,3.0,81,0.00,,,0.00,weatherlink.com 1.10,2015-08-03 08:05:00,
2015-08-03 04:20:00,69.3,63.0,29.81,SE,146,0.0,2.0,81,0.00,,,0.00,weatherlink.com 1.10,2015-08-03 08:20:00,
2015-08-03 04:35:00,69.7,63.0,29.80,SE,132,0.0,3.0,80,0.00,,,0.00,weatherlink.com 1.10,2015-08-03 08:35:00,
2015-08-03 05:05:00,69.7,63.0,29.81,ENE,68,0.0,3.0,79,0.00,,,0.00,weatherlink.com 1.10,2015-08-03 09:05:00,
2015-08-03 05:35:00,71.4,59.0,29.88,NNW,327,9.0,23.0,65,0.00,,,0.00,weatherlink.com 1.10,2015-08-03 09:35:00,
2015-08-03 05:50:00,66.3,61.0,29.90,NNW,327,8.0,22.0,82,0.23,,,0.23,weatherlink.com 1.10,2015-08-03 09:50:00,
2015-08-03 06:05:00,64.4,61.0,29.93,North,5,2.0,12.0,89,0.46,,,0.46,weatherlink.com 1.10,2015-08-03 10:05:00,
2015-08-03 06:20:00,63.8,61.0,29.94,NNE,22,0.0,7.0,91,0.79,,,0.79,weatherlink.com 1.10,2015-08-03 10:20:00,
2015-08-03 06:35:00,63.8,62.0,29.94,NNW,342,4.0,9.0,92,0.93,,,0.93,weatherlink.com 1.10,2015-08-03 10:35:00,
2015-08-03 06:50:00,63.7,61.0,29.91,ENE,76,1.0,7.0,92,0.72,,,0.97,weatherlink.com 1.10,2015-08-03 10:50:00,
2015-08-03 07:05:00,63.7,62.0,29.90,South,190,1.0,6.0,93,0.48,,,0.98,weatherlink.com 1.10,2015-08-03 11:05:00,
2015-08-03 07:20:00,63.9,62.0,29.86,SSE,163,3.0,9.0,93,0.18,,,0.99,weatherlink.com 1.10,2015-08-03 11:20:00,
2015-08-03 07:35:00,64.0,62.0,29.86,South,189,1.0,11.0,93,0.06,,,0.99,weatherlink.com 1.10,2015-08-03 11:35:00,
2015-08-03 07:50:00,64.0,62.0,29.86,SSE,162,1.0,7.0,93,0.02,,,0.99,weatherlink.com 1.10,2015-08-03 11:50:00,
2015-08-03 08:05:00,64.2,62.0,29.84,SSE,164,4.0,7.0,93,0.01,,,0.99,weatherlink.com 1.10,2015-08-03 12:05:00,
2015-08-03 08:20:00,64.2,62.0,29.84,SE,134,0.0,5.0,93,0.00,,,0.99,weatherlink.com 1.10,2015-08-03 12:20:00,
2015-08-03 08:36:00,64.7,63.0,29.84,South,175,1.0,5.0,93,0.00,,,0.99,weatherlink.com 1.10,2015-08-03 12:36:00,
2015-08-03 08:50:00,65.3,63.0,29.84,SE,126,2.0,5.0,93,0.00,,,0.99,weatherlink.com 1.10,2015-08-03 12:50:00,
2015-08-03 09:06:00,65.8,64.0,29.84,ESE,117,0.0,5.0,93,0.00,,,0.99,weatherlink.com 1.10,2015-08-03 13:06:00,
2015-08-03 09:20:00,66.7,64.0,29.84,SSE,168,0.0,7.0,92,0.00,,,0.99,weatherlink.com 1.10,2015-08-03 13:20:00,
2015-08-03 09:35:00,67.5,64.0,29.83,South,175,2.0,11.0,89,0.00,,,0.99,weatherlink.com 1.10,2015-08-03 13:35:00,
2015-08-03 09:50:00,68.7,64.0,29.84,SSE,166,1.0,10.0,85,0.00,,,0.99,weatherlink.com 1.10,2015-08-03 13:50:00,
2015-08-03 10:05:00,70.0,65.0,29.84,SE,133,0.0,6.0,84,0.00,,,0.99,weatherlink.com 1.10,2015-08-03 14:05:00,
2015-08-03 10:20:00,71.9,65.0,29.84,SE,128,0.0,5.0,80,0.00,,,0.99,weatherlink.com 1.10,2015-08-03 14:20:00,
2015-08-03 10:51:00,74.0,66.0,29.83,SSE,154,2.0,7.0,76,0.00,,,0.99,weatherlink.com 1.10,2015-08-03 14:51:00,
2015-08-03 11:06:00,75.5,66.0,29.83,ESE,113,4.0,8.0,73,0.00,,,0.99,weatherlink.com 1.10,2015-08-03 15:06:00,
2015-08-03 11:36:00,78.0,67.0,29.83,South,173,3.0,13.0,68,0.00,,,0.99,weatherlink.com 1.10,2015-08-03 15:36:00,
2015-08-03 11:51:00,78.9,66.0,29.82,SE,128,6.0,12.0,65,0.00,,,0.99,weatherlink.com 1.10,2015-08-03 15:51:00,
2015-08-03 12:06:00,79.7,66.0,29.82,SE,128,5.0,11.0,64,0.00,,,0.99,weatherlink.com 1.10,2015-08-03 16:06:00,
2015-08-03 12:21:00,80.6,67.0,29.83,SE,131,6.0,12.0,64,0.00,,,0.99,weatherlink.com 1.10,2015-08-03 16:21:00,
2015-08-03 12:36:00,81.4,67.0,29.82,SSE,155,4.0,17.0,61,0.00,,,0.99,weatherlink.com 1.10,2015-08-03 16:36:00,
2015-08-03 12:51:00,81.9,67.0,29.82,South,175,3.0,16.0,61,0.00,,,0.99,weatherlink.com 1.10,2015-08-03 16:51:00,
2015-08-03 13:06:00,82.2,67.0,29.82,SSE,149,10.0,16.0,60,0.00,,,0.99,weatherlink.com 1.10,2015-08-03 17:06:00,
2015-08-03 13:21:00,82.6,68.0,29.82,SSW,202,13.0,15.0,61,0.00,,,0.99,weatherlink.com 1.10,2015-08-03 17:21:00,
2015-08-03 13:36:00,82.4,67.0,29.81,SSW,200,6.0,17.0,60,0.00,,,0.99,weatherlink.com 1.10,2015-08-03 17:36:00,
2015-08-03 13:51:00,83.4,68.0,29.81,South,177,4.0,14.0,60,0.00,,,0.99,weatherlink.com 1.10,2015-08-03 17:51:00,
2015-08-03 14:21:00,84.7,69.0,29.80,SSW,198,7.0,11.0,59,0.00,,,0.99,weatherlink.com 1.10,2015-08-03 18:21:00,
2015-08-03 14:36:00,85.5,68.0,29.80,South,181,4.0,11.0,57,0.00,,,0.99,weatherlink.com 1.10,2015-08-03 18:36:00,
2015-08-03 14:51:00,86.1,69.0,29.80,SSE,167,4.0,9.0,56,0.00,,,0.99,weatherlink.com 1.10,2015-08-03 18:51:00,
2015-08-03 15:06:00,86.0,69.0,29.80,South,191,4.0,10.0,57,0.00,,,0.99,weatherlink.com 1.10,2015-08-03 19:06:00,
2015-08-03 15:21:00,86.2,69.0,29.80,South,171,7.0,7.0,57,0.00,,,0.99,weatherlink.com 1.10,2015-08-03 19:21:00,
2015-08-03 15:36:00,86.2,69.0,29.79,South,178,4.0,11.0,56,0.00,,,0.99,weatherlink.com 1.10,2015-08-03 19:36:00,
2015-08-03 15:51:00,86.7,69.0,29.79,South,186,2.0,11.0,56,0.00,,,0.99,weatherlink.com 1.10,2015-08-03 19:51:00,
2015-08-03 16:06:00,87.1,68.0,29.79,WSW,251,10.0,13.0,54,0.00,,,0.99,weatherlink.com 1.10,2015-08-03 20:06:00,
2015-08-03 16:21:00,86.9,69.0,29.79,South,188,12.0,14.0,56,0.00,,,0.99,weatherlink.com 1.10,2015-08-03 20:21:00,
2015-08-03 16:36:00,87.7,69.0,29.79,SSE,157,7.0,11.0,54,0.00,,,0.99,weatherlink.com 1.10,2015-08-03 20:36:00,
2015-08-03 16:51:00,88.5,69.0,29.78,South,186,2.0,12.0,53,0.00,,,0.99,weatherlink.com 1.10,2015-08-03 20:51:00,
2015-08-03 17:06:00,88.3,70.0,29.78,SSE,164,3.0,14.0,55,0.00,,,0.99,weatherlink.com 1.10,2015-08-03 21:06:00,
2015-08-03 17:21:00,87.3,69.0,29.78,SSW,198,6.0,9.0,55,0.00,,,0.99,weatherlink.com 1.10,2015-08-03 21:21:00,
2015-08-03 17:36:00,86.1,69.0,29.78,South,189,3.0,11.0,57,0.00,,,0.99,weatherlink.com 1.10,2015-08-03 21:36:00,
2015-08-03 17:52:00,85.7,70.0,29.79,South,188,1.0,7.0,59,0.00,,,0.99,weatherlink.com 1.10,2015-08-03 21:52:00,
2015-08-03 18:06:00,85.4,69.0,29.80,South,191,2.0,6.0,59,0.00,,,0.99,weatherlink.com 1.10,2015-08-03 22:06:00,
2015-08-03 18:22:00,83.8,72.0,29.82,NNW,333,8.0,8.0,68,0.09,,,1.08,weatherlink.com 1.10,2015-08-03 22:22:00,
2015-08-03 18:37:00,73.7,69.0,29.83,NW,319,7.0,20.0,85,0.34,,,1.33,weatherlink.com 1.10,2015-08-03 22:37:00,
2015-08-03 18:52:00,71.7,68.0,29.85,NNW,333,4.0,8.0,89,0.58,,,1.57,weatherlink.com 1.10,2015-08-03 22:52:00,